Wetbulb
32.26 30.01 27.69 29.79 28.24 28.45 28.09 27.10 26.47 25.65 28.64 28.73 27.76 28.61 32.16 29.92 28.22 28.56 28.30 29.08 28.85 29.15 32.10 30.48 30.50 30.37 31.51 31.99 31.80 31.64 31.33 30.84 31.20 30.94 30.51 30.64 29.89 30.61 29.16 28.78 28.74 28.33 27.79 27.81
29.57 27.66 28.68 31.06 30.32 29.10 28.61 27.32 25.82 27.32 28.44 27.97 26.19 26.83 31.15 29.71 30.97 31.72 31.42 30.57 30.50 29.93 28.59 29.69 29.50 28.95 30.73 31.45 31.41 30.67 30.61 30.16 29.80 29.75 29.60 29.88 29.40 29.57 28.74 28.13 27.88 27.42 26.80 26.60
28.44 28.44 30.81 30.70 28.86 28.71 26.96 27.28 25.89 26.79 27.14 27.37 24.72 25.06 26.82 29.74 31.36 31.13 33.22 34.20 32.81 31.05 29.67 29.53 28.75 28.48 30.09 30.30 29.98 30.12 29.63 28.94 28.41 28.36 28.61 28.55 28.47 28.27 27.39 26.40 25.92 25.83 25.61 25.13
27.38 29.73 29.71 28.82 28.20 29.00 27.06 28.11 28.09 27.05 25.96 22.22 25.15 21.35 26.79 28.33 28.83 28.53 31.02 31.65 32.77 31.35 31.64 31.04 29.63 28.18 29.13 29.87 29.64 29.78 28.81 27.83 27.31 27.12 26.50 25.89 25.42 24.58 24.61 23.89 24.77 24.38 24.29 23.57
27.57 27.73 27.87 28.18 28.66 29.66 27.99 28.45 27.41 26.70 24.30 23.00 22.42 20.02 25.59 25.25 29.04 31.29 30.58 30.51 32.21 31.57 31.63 30.55 29.97 29.93 29.64 29.35 28.78 28.75 27.77 26.66 25.86 25.47 25.26 24.86 23.95 24.16 23.71 22.78 22.55 22.27 22.60 22.63
26.71 29.60 28.46 28.09 28.38 28.87 28.65 26.96 26.02 23.85 22.94 15.10 20.58 21.03 23.45 26.52 29.21 31.20 30.73 30.02 30.18 30.60 31.28 31.25 31.10 30.62 28.09 28.58 27.89 27.15 26.22 25.10 25.05 24.27 23.82 23.24 21.97 21.58 21.24 20.72 20.25 20.04 20.62 21.10
26.52 26.61 27.82 29.60 27.43 29.63 27.46 25.08 15.33 15.58 11.00 16.81 18.30 18.20 24.66 28.68 30.09 30.41 31.53 31.31 29.36 29.81 29.46 28.47 28.07 27.72 26.85 27.24 26.72 26.12 25.55 23.95 24.18 23.88 23.11 22.45 21.09 20.53 19.31 18.67 18.02 17.83 18.14 18.68
23.14 20.61 26.77 29.37 27.48 26.36 25.28 25.04 19.72 12.95 12.78 17.02 20.03 16.77 28.32 29.56 30.69 30.23 30.23 30.34 29.85 27.90 28.61 28.26 27.99 28.08 27.43 27.67 26.52 26.71 25.22 23.77 23.72 23.46 22.08 20.92 21.16 20.09 19.16 17.75 17.16 16.93 16.89 17.78
22.92 22.71 26.74 28.44 27.76 27.80 25.69 21.81 24.34 11.32 4.42 13.28 21.18 25.56 30.49 30.91 29.13 29.77 30.38 29.32 28.77 27.17 27.28 27.48 27.69 28.23 27.89 27.38 26.52 25.88 24.97 24.00 23.37 22.88 21.18 19.21 18.85 18.07 16.90 16.57 16.85 16.72 17.16 18.85
27.48 21.08 25.35 26.78 27.43 26.68 25.60 26.62 20.14 16.03 10.93 8.33 16.21 18.86 26.88 30.17 31.35 30.81 28.71 28.69 29.18 27.18 26.09 26.40 27.24 27.75 28.13 27.78 26.79 25.72 25.46 23.95 23.55 22.27 20.35 19.11 17.81 17.20 16.60 16.67 15.61 15.92 16.67 17.33
27.39 26.72 21.34 25.45 24.05 22.60 21.19 20.00 20.12 21.71 19.12 14.04 11.01 20.31 27.85 29.86 30.06 31.71 32.32 30.69 29.09 27.43 26.03 26.03 26.90 27.86 27.79 27.12 25.37 24.85 24.08 22.85 22.33 21.35 19.84 18.31 17.15 16.37 16.27 15.72 15.14 15.31 16.27 16.82
29.67 23.89 16.81 20.42 22.04 22.68 23.17 23.52 22.41 18.29 16.16 13.21 14.41 18.98 30.11 30.07 30.02 29.96 30.10 30.67 28.90 27.85 25.66 25.56 26.56 26.47 25.77 24.94 24.69 23.87 23.28 22.58 21.95 20.06 19.12 18.08 17.01 15.79 14.77 14.17 14.32 15.00 15.15 16.65
29.69 24.18 12.39 18.01 20.67 20.66 21.63 23.24 23.00 15.89 15.40 12.44 14.29 20.40 29.20 29.15 29.08 29.57 29.33 29.86 28.65 26.61 23.93 24.80 25.30 25.24 25.30 24.84 24.34 23.44 22.58 22.23 20.39 19.26 18.05 16.51 15.17 14.28 13.11 12.22 13.20 13.64 13.91 14.79
34.59 24.40 20.91 22.80 24.35 22.21 19.10 21.75 24.30 20.36 12.02 15.24 16.71 19.16 30.65 31.37 30.60 30.96 29.11 28.45 27.78 26.15 24.98 24.64 24.78 25.26 25.49 25.07 24.11 22.65 22.05 21.32 19.02 17.87 16.19 14.64 13.80 12.76 11.57 10.23 9.38 9.54 12.29 12.67
30.47 24.22 18.13 18.33 20.94 20.13 22.25 22.42 22.96 21.65 25.49 21.57 22.11 20.73 29.92 34.09 33.60 33.83 31.04 29.33 27.48 25.65 24.65 24.72 25.07 24.99 24.72 24.31 23.60 22.43 21.22 19.50 17.83 15.82 14.35 13.49 12.33 9.79 7.18 5.13 5.64 7.07 9.49 10.65
28.30 24.34 21.20 20.67 20.41 21.57 19.03 22.62 21.90 23.44 23.62 22.60 25.29 23.62 29.64 32.52 30.49 30.65 32.05 29.14 28.34 27.15 26.26 25.91 26.53 25.83 24.82 24.72 22.99 22.34 19.39 18.04 16.81 14.23 11.39 9.76 8.31 5.76 4.28 2.87 3.73 6.98 7.61 8.50
26.81 23.40 23.54 21.67 19.04 19.37 22.06 21.37 21.91 20.58 19.82 24.06 19.88 28.05 32.47 31.94 32.82 33.66 32.64 28.71 30.54 30.26 28.35 26.64 26.25 25.96 26.02 25.38 24.27 20.90 18.91 17.23 15.08 12.38 7.63 6.46 4.62 3.07 1.53 2.81 5.14 6.32 5.99 8.42
26.00 24.44 27.57 23.21 23.14 20.39 28.07 23.04 25.44 26.47 26.04 26.15 25.81 25.61 32.42 34.03 30.40 30.19 31.67 32.36 30.86 32.08 33.05 28.49 27.41 26.95 26.81 26.11 23.44 21.13 17.66 15.47 13.17 9.32 6.61 4.59 4.43 4.51 2.60 3.77 4.82 3.56 8.24 8.71
31.49 30.26 23.90 23.49 21.00 24.94 30.12 24.31 24.88 23.98 28.82 29.87 28.65 31.62 33.41 30.46 29.47 33.32 32.95 32.31 33.56 33.05 30.56 29.95 28.89 28.01 26.62 24.46 22.17 18.48 16.50 13.66 10.82 7.76 6.43 5.27 6.34 4.77 3.60 4.60 4.57 6.23 9.79 11.37
25.46 29.97 30.06 22.24 21.57 17.10 27.71 33.88 29.27 31.37 26.38 34.58 31.96 33.21 31.74 29.16 25.45 35.06 30.80 27.44 28.79 26.44 27.22 27.66 28.28 27.02 25.42 22.69 19.19 17.68 14.83 12.60 10.82 8.63 7.21 6.47 7.93 6.93 5.84 5.89 5.51 7.33 10.15 12.24
21.79 21.49 26.64 27.70 24.66 25.11 30.09 26.43 31.58 24.73 28.43 33.21 34.79 34.84 28.21 29.43 33.04 30.58 23.69 25.65 23.96 23.10 23.51 26.49 26.48 25.11 23.35 19.92 19.40 17.62 15.02 13.80 12.83 10.07 7.52 7.21 8.83 8.21 8.37 8.47 9.59 9.50 10.40 10.53
25.19 22.81 22.48 25.34 24.65 22.92 28.57 27.21 31.65 34.79 34.02 34.22 33.25 32.77 30.22 32.20 29.66 24.04 22.37 22.51 22.49 24.48 26.13 25.04 24.31 23.04 20.44 19.72 19.18 17.44 15.19 15.59 10.63 8.81 8.21 8.07 9.18 11.14 11.10 10.58 11.07 11.40 11.31 11.11
24.62 27.97 27.08 28.17 28.43 31.45 28.57 30.42 31.47 29.68 33.20 33.68 34.52 33.66 32.42 30.87 29.85 28.87 27.51 25.01 23.75 23.61 23.20 23.08 21.82 17.59 18.01 18.89 20.06 16.36 16.77 10.94 9.86 9.21 8.61 8.60 10.30 11.93 11.98 11.40 10.94 11.29 11.58 11.46
23.90 25.96 27.59 28.35 32.79 31.75 29.21 27.12 26.52 29.20 32.35 32.26 33.50 34.49 32.76 33.32 31.50 29.78 27.15 24.91 22.97 22.03 20.84 19.57 16.52 16.07 15.66 17.48 19.30 18.27 11.21 11.43 10.57 9.21 8.82 9.41 10.65 10.65 11.43 12.76 12.37 11.63 10.66 10.60
29.69 28.83 28.28 27.09 33.35 32.86 33.62 30.61 32.53 32.69 31.62 30.83 28.38 29.62 32.34 31.41 30.91 29.73 27.48 24.65 22.53 21.07 19.43 17.46 16.71 15.69 15.06 16.87 17.42 12.04 12.07 11.94 10.64 9.90 9.67 10.40 11.31 11.03 10.99 11.44 11.59 11.63 11.31 12.60
27.66 28.39 28.05 28.83 34.70 32.10 32.76 33.58 32.94 32.22 33.63 33.77 29.67 27.50 28.53 27.93 28.52 25.31 24.39 22.30 20.16 18.94 17.38 16.31 15.87 15.47 14.84 16.55 12.91 12.82 12.43 13.13 11.33 10.05 10.24 10.95 10.73 10.70 10.68 10.54 12.16 18.11 16.88 19.77
MSLP
1017.98 1019.03 1019.43 1019.45 1019.81 1019.86 1020.23 1020.70 1021.09 1021.41 1021.74 1022.05 1021.50 1021.24 1020.38 1021.39 1021.85 1021.82 1021.73 1021.96 1022.45 1022.74 1023.41 1024.54 1024.88 1025.38 1026.18 1026.67 1027.08 1027.49 1027.94 1028.17 1028.14 1028.25 1028.35 1028.44 1028.46 1028.60 1028.55 1028.49 1028.22 1027.79 1027.72 1027.69
1018.80 1018.96 1019.06 1019.35 1019.99 1020.08 1020.33 1020.92 1021.48 1021.70 1021.89 1022.24 1021.36 1020.59 1019.50 1019.87 1019.45 1019.37 1019.52 1020.31 1020.81 1022.13 1022.95 1023.40 1024.16 1024.92 1025.72 1026.35 1027.13 1027.60 1027.98 1028.18 1028.31 1028.46 1028.62 1028.63 1028.67 1028.65 1028.63 1028.56 1028.31 1028.38 1028.11 1027.77
1018.58 1019.10 1019.30 1019.33 1020.07 1020.56 1020.78 1020.94 1021.50 1022.07 1022.16 1022.26 1021.70 1019.72 1018.28 1017.27 1017.46 1017.61 1018.05 1018.28 1019.16 1019.85 1021.11 1022.34 1023.47 1024.38 1025.24 1026.14 1026.76 1027.26 1027.72 1028.08 1028.35 1028.47 1028.56 1028.62 1028.66 1028.68 1028.66 1028.60 1028.42 1028.49 1028.24 1028.04
1019.06 1019.32 1019.42 1019.94 1020.29 1020.43 1021.41 1021.27 1021.75 1022.43 1022.84 1022.98 1022.61 1020.31 1018.08 1016.73 1016.68 1016.58 1016.51 1016.99 1017.50 1018.59 1019.83 1020.79 1022.13 1023.52 1024.72 1025.57 1026.31 1026.86 1027.42 1027.97 1028.48 1028.60 1028.77 1028.91 1029.09 1029.24 1029.38 1029.29 1029.03 1028.86 1028.57 1028.52
1019.27 1019.69 1019.94 1020.22 1020.49 1020.60 1021.51 1021.83 1022.51 1023.16 1023.74 1023.71 1023.08 1022.65 1017.66 1016.67 1016.05 1015.03 1015.08 1016.02 1016.96 1017.62 1018.70 1019.76 1020.88 1022.29 1023.98 1025.28 1026.15 1026.76 1027.34 1027.87 1028.47 1028.86 1029.06 1029.37 1029.55 1029.63 1029.53 1029.42 1029.05 1029.03 1028.86 1028.73
1019.76 1020.07 1020.25 1020.70 1021.28 1021.27 1022.13 1022.65 1023.47 1024.21 1024.81 1024.70 1023.46 1022.70 1018.16 1016.44 1015.25 1014.74 1014.73 1015.23 1016.24 1017.51 1018.53 1019.66 1020.92 1022.07 1023.57 1024.73 1025.88 1026.78 1027.44 1028.13 1028.45 1028.83 1029.19 1029.41 1029.72 1029.80 1029.76 1029.79 1029.51 1029.38 1029.27 1028.98
1019.94 1020.25 1020.62 1020.76 1021.70 1022.37 1022.41 1023.20 1024.82 1025.83 1026.40 1025.17 1023.75 1023.01 1018.08 1015.23 1014.36 1014.49 1014.88 1015.48 1016.25 1017.21 1018.31 1019.34 1020.65 1022.00 1023.29 1024.27 1025.28 1026.28 1027.13 1027.95 1028.39 1028.77 1029.11 1029.43 1029.69 1029.98 1030.10 1030.23 1030.10 1029.86 1029.57 1029.31
1019.59 1020.79 1020.75 1020.78 1020.89 1021.44 1022.74 1023.06 1024.12 1025.55 1026.84 1025.52 1024.00 1021.10 1015.70 1014.26 1013.80 1013.77 1014.43 1015.15 1016.04 1016.95 1017.85 1018.93 1019.99 1021.19 1022.39 1023.58 1024.75 1025.59 1026.55 1027.48 1028.21 1028.65 1029.07 1029.35 1029.63 1029.97 1030.27 1030.54 1030.50 1030.29 1030.02 1029.80
1018.48 1020.22 1021.05 1021.20 1021.37 1021.41 1022.85 1023.37 1023.64 1025.72 1027.82 1026.10 1022.47 1018.94 1015.39 1013.24 1013.25 1013.65 1014.16 1015.27 1016.27 1017.01 1017.71 1018.41 1019.60 1020.60 1021.75 1022.91 1024.11 1025.09 1026.06 1027.00 1027.79 1028.38 1028.94 1029.39 1029.70 1030.11 1030.39 1030.55 1030.55 1030.44 1030.15 1029.76
1016.87 1019.51 1021.36 1021.70 1021.71 1022.06 1022.17 1022.58 1023.85 1025.00 1026.23 1025.21 1022.19 1019.81 1016.23 1013.75 1013.36 1013.44 1014.06 1014.80 1015.79 1016.94 1017.91 1018.63 1019.46 1020.42 1021.41 1022.50 1023.61 1024.88 1025.69 1026.43 1027.41 1028.20 1028.84 1029.32 1029.74 1030.20 1030.43 1030.55 1030.47 1030.47 1030.22 1029.87
1016.58 1017.92 1021.83 1022.09 1021.81 1021.70 1022.71 1022.79 1023.37 1023.68 1024.10 1023.61 1021.96 1017.72 1014.32 1013.49 1013.34 1013.54 1013.52 1014.19 1015.18 1016.14 1017.19 1018.13 1019.16 1020.28 1021.22 1022.28 1023.16 1024.18 1025.33 1026.28 1027.24 1027.96 1028.69 1029.25 1029.67 1030.08 1030.40 1030.55 1030.53 1030.61 1030.34 1029.93
1016.44 1018.22 1020.82 1021.17 1021.53 1021.64 1021.59 1021.82 1022.06 1022.92 1023.44 1023.25 1021.31 1016.75 1013.37 1013.04 1012.97 1013.17 1013.49 1014.05 1014.73 1015.69 1017.01 1018.25 1019.24 1020.21 1021.17 1022.04 1022.96 1023.79 1024.95 1025.89 1026.67 1027.60 1028.40 1029.16 1029.66 1030.03 1030.35 1030.58 1030.66 1030.60 1030.58 1030.03
1016.31 1017.71 1020.20 1021.34 1021.95 1021.93 1021.42 1020.75 1021.06 1021.65 1021.96 1022.08 1020.56 1016.28 1013.15 1012.94 1012.68 1012.79 1013.41 1014.00 1014.90 1015.93 1016.88 1018.01 1019.16 1019.92 1020.79 1021.71 1022.60 1023.47 1024.40 1025.27 1026.35 1027.31 1028.26 1029.06 1029.66 1030.18 1030.64 1030.84 1030.83 1030.70 1030.81 1030.21
1015.98 1017.23 1017.99 1018.56 1018.64 1019.03 1020.16 1019.35 1019.35 1020.12 1020.89 1019.95 1017.85 1016.04 1013.75 1012.38 1012.57 1012.57 1013.02 1013.62 1014.60 1015.84 1016.78 1017.63 1018.45 1019.20 1020.08 1021.05 1021.90 1022.89 1023.93 1024.72 1025.82 1026.96 1028.06 1028.96 1029.71 1030.43 1030.96 1031.37 1031.47 1031.34 1031.10 1030.57
1017.26 1017.95 1018.10 1017.91 1018.10 1018.38 1018.40 1018.10 1018.41 1019.00 1017.82 1017.83 1016.42 1015.50 1013.87 1011.86 1011.76 1011.73 1012.45 1013.26 1014.16 1015.08 1016.05 1016.78 1017.55 1018.41 1019.36 1020.34 1021.33 1022.32 1023.42 1024.32 1025.38 1026.67 1027.91 1028.85 1029.64 1030.65 1031.23 1031.62 1031.83 1031.72 1031.46 1030.89
1018.14 1018.57 1018.60 1018.20 1017.81 1017.68 1017.51 1016.86 1017.28 1017.49 1017.59 1017.14 1016.03 1014.59 1012.73 1011.17 1011.40 1011.19 1011.48 1012.61 1013.25 1013.68 1014.46 1015.29 1016.28 1017.30 1018.04 1018.87 1020.27 1021.61 1022.89 1024.14 1025.13 1026.47 1027.86 1029.05 1029.87 1030.76 1031.42 1031.52 1031.71 1031.64 1031.38 1031.02
1018.00 1018.13 1018.86 1018.33 1017.55 1017.30 1015.70 1014.22 1014.95 1015.05 1014.94 1014.39 1014.23 1012.25 1011.16 1010.44 1009.48 1009.77 1010.75 1011.88 1012.10 1012.37 1012.92 1013.67 1014.21 1015.18 1016.46 1017.53 1018.96 1020.68 1022.37 1023.94 1025.23 1026.47 1028.02 1029.18 1030.07 1030.86 1031.45 1031.53 1031.49 1031.67 1031.60 1031.07
1017.13 1017.75 1017.98 1017.84 1017.39 1015.65 1011.66 1011.47 1011.57 1011.90 1011.95 1011.86 1010.93 1010.32 1008.93 1008.41 1009.13 1009.72 1009.88 1010.20 1010.87 1010.70 1010.80 1011.83 1013.02 1014.24 1015.64 1017.20 1018.78 1020.47 1022.14 1023.70 1025.13 1026.53 1027.88 1029.27 1030.04 1030.63 1031.12 1031.37 1031.39 1031.60 1031.55 1031.13
1015.52 1016.40 1016.87 1016.70 1015.81 1012.87 1010.20 1010.92 1010.83 1010.48 1008.90 1009.38 1009.56 1008.00 1007.97 1009.05 1009.46 1008.47 1008.76 1008.74 1008.70 1009.45 1010.19 1010.68 1011.66 1013.11 1014.89 1016.47 1018.14 1019.95 1021.77 1023.32 1024.89 1026.26 1027.58 1028.82 1029.54 1030.31 1030.85 1031.21 1031.31 1031.50 1031.41 1031.07
1015.12 1015.19 1015.26 1015.28 1013.98 1012.25 1007.82 1007.20 1007.65 1008.52 1006.58 1007.03 1007.07 1006.82 1007.79 1008.85 1009.87 1008.28 1008.39 1008.68 1009.15 1009.76 1010.09 1010.81 1011.69 1012.91 1014.33 1016.04 1017.74 1019.53 1021.19 1022.69 1024.19 1025.48 1026.94 1028.28 1029.09 1029.68 1030.17 1030.58 1031.01 1031.24 1031.19 1031.07
1014.78 1014.70 1013.45 1012.95 1012.59 1010.34 1007.43 1007.40 1007.63 1007.44 1005.68 1004.71 1005.21 1005.62 1007.19 1008.26 1008.01 1008.39 1008.76 1009.26 1009.98 1010.20 1010.62 1011.42 1012.10 1012.95 1014.17 1015.88 1017.41 1018.98 1020.49 1021.77 1023.31 1025.02 1026.58 1027.95 1028.73 1029.23 1029.81 1030.26 1030.67 1030.96 1031.04 1031.20
1011.50 1012.66 1012.23 1012.34 1011.33 1009.20 1006.26 1007.33 1006.16 1004.55 1004.07 1004.32 1004.72 1005.60 1006.60 1006.58 1007.39 1008.61 1009.33 1009.77 1010.52 1010.85 1011.45 1012.09 1013.04 1013.85 1014.77 1015.76 1016.73 1018.53 1020.02 1021.41 1023.17 1024.84 1026.31 1027.59 1028.21 1028.91 1029.67 1029.89 1030.54 1030.93 1030.97 1030.95
1009.33 1007.67 1008.26 1008.45 1006.82 1005.31 1005.35 1005.29 1004.50 1004.40 1004.57 1004.46 1004.60 1005.05 1005.90 1006.80 1007.21 1008.25 1009.25 1009.91 1010.55 1010.77 1011.64 1012.44 1013.05 1014.46 1015.31 1016.09 1016.47 1017.75 1019.69 1021.34 1022.86 1024.48 1025.89 1027.20 1028.11 1028.67 1029.40 1029.70 1030.25 1030.73 1030.74 1030.65
1007.30 1006.89 1006.64 1006.73 1004.43 1004.60 1004.99 1004.99 1004.79 1004.91 1004.43 1004.56 1004.53 1004.86 1005.59 1006.28 1006.75 1007.72 1008.69 1009.45 1010.80 1011.57 1011.74 1012.33 1013.37 1014.47 1015.21 1016.37 1016.91 1018.05 1019.82 1021.23 1022.45 1024.05 1025.53 1026.76 1027.53 1028.57 1029.37 1029.66 1030.17 1030.55 1030.67 1030.51
1005.92 1006.34 1005.66 1005.36 1004.08 1004.55 1004.75 1004.40 1004.37 1004.57 1004.68 1004.78 1005.19 1005.46 1005.64 1005.96 1006.38 1007.27 1008.42 1008.84 1010.32 1011.21 1012.56 1012.35 1012.86 1013.91 1014.94 1015.81 1016.77 1018.10 1019.54 1020.82 1022.22 1023.75 1025.03 1026.17 1026.87 1027.97 1029.01 1029.52 1029.96 1030.13 1030.40 1030.24
1005.03 1004.75 1005.06 1003.75 1003.73 1003.63 1003.86 1003.68 1003.94 1004.38 1004.57 1004.31 1004.82 1005.36 1005.44 1005.88 1006.27 1007.12 1007.85 1008.69 1009.81 1011.04 1011.98 1012.84 1013.13 1013.77 1014.74 1015.55 1016.75 1017.92 1019.11 1020.12 1021.18 1022.87 1024.35 1025.49 1026.25 1027.43 1028.49 1029.23 1029.77 1029.58 1029.71 1029.45
Wind_Speed
3 5 7 11 3 4 7 4 4 4 2 4 9 15 17 8 10 14 15 16 17 18 10 8 11 10 9 8 8 7 6 3 2 1 1 0 1 2 2 5 7 10 11 11
5 5 2 8 5 5 4 3 2 2 1 4 4 14 18 11 14 20 21 18 19 13 10 13 13 11 11 10 8 7 6 4 3 2 1 0 0 1 1 5 8 9 10 10
7 1 4 5 5 5 1 4 4 2 1 4 8 9 7 5 12 6 16 15 17 21 19 16 15 14 11 10 10 9 7 6 4 3 1 1 1 0 3 6 6 9 10 11
2 2 5 4 3 5 3 1 4 4 1 5 3 10 7 5 8 8 14 17 15 17 16 16 18 15 14 11 9 9 8 7 4 4 4 4 2 2 2 4 6 7 9 10
4 6 4 4 4 5 3 3 5 3 2 4 1 2 9 3 8 11 10 13 15 16 18 18 20 18 14 11 10 9 9 7 6 5 4 3 3 1 3 4 7 9 8 9
3 1 2 3 3 2 10 6 7 4 3 4 3 2 6 4 5 6 3 5 9 11 13 11 13 14 13 11 10 9 10 7 7 6 5 5 4 3 5 6 6 7 7 7
2 2 1 4 8 6 2 5 3 6 5 8 2 2 13 10 8 6 4 3 6 9 11 12 15 15 14 15 13 11 11 9 7 7 5 5 4 4 4 5 5 7 7 7
8 5 8 5 5 9 4 4 8 9 5 5 1 8 9 9 8 7 7 6 5 8 10 13 16 16 17 17 15 13 12 10 9 7 6 5 4 3 3 4 4 4 5 6
7 1 2 3 1 3 7 5 3 9 3 4 5 9 12 7 10 8 7 4 7 7 10 13 14 15 17 16 16 15 13 11 10 8 7 5 4 4 3 4 4 4 5 6
7 5 3 1 0 3 2 5 4 3 3 5 5 7 10 7 5 5 6 11 8 6 7 9 12 14 14 14 13 13 12 13 11 9 7 5 5 4 3 3 4 5 6 7
6 6 1 2 7 9 1 3 2 3 5 7 3 9 9 9 6 8 7 7 8 9 11 11 11 12 13 13 14 14 13 13 11 9 8 7 5 4 4 3 4 5 6 7
2 6 5 8 1 1 3 7 7 7 7 2 3 10 6 7 7 6 9 7 4 6 8 9 11 13 13 14 14 15 13 13 11 10 9 7 6 5 4 3 4 5 6 6
9 3 4 5 3 2 7 8 5 4 4 8 8 8 0 5 7 8 9 6 4 5 8 10 11 13 14 14 15 14 14 13 11 10 10 8 7 5 4 3 4 5 5 6
6 2 8 9 5 6 7 10 17 8 5 6 8 6 10 9 8 7 8 8 6 7 9 10 12 13 14 15 15 15 14 13 12 11 9 9 8 6 4 3 4 4 4 6
4 4 2 3 1 3 4 6 15 20 23 11 7 14 18 21 11 14 9 6 7 9 11 13 14 14 15 16 15 15 14 13 13 11 9 8 8 6 5 4 3 4 4 5
3 2 2 3 3 5 8 8 10 18 11 13 21 18 16 19 10 13 12 9 11 11 14 15 15 17 19 20 18 16 15 14 13 11 10 8 8 6 5 4 4 4 3 4
7 5 3 7 3 5 15 11 16 8 6 10 12 20 14 18 23 19 9 9 14 12 15 17 21 20 19 20 19 19 16 13 12 11 10 9 8 7 5 4 5 4 3 3
7 6 3 3 3 9 5 2 5 14 9 20 9 6 18 20 3 6 8 11 13 17 16 14 14 15 16 16 17 16 15 14 12 11 11 9 9 8 6 5 5 3 2 3
8 8 4 5 6 12 19 7 9 11 15 18 22 25 22 5 6 22 11 17 20 10 6 10 13 14 16 18 18 18 16 14 13 12 12 11 10 9 7 6 6 3 3 2
5 4 9 4 5 10 6 9 9 5 19 14 21 19 10 7 1 14 4 2 3 1 3 8 11 14 17 17 19 19 17 17 16 14 13 11 10 10 9 8 6 3 2 3
7 2 17 14 8 13 10 6 7 6 6 5 10 13 9 7 10 3 1 1 3 2 4 7 13 15 16 18 19 19 18 18 15 14 13 11 9 10 9 7 4 4 4 4
14 12 8 6 7 19 10 3 14 5 4 4 4 4 8 10 3 0 1 2 3 5 7 8 9 10 12 16 19 18 18 15 15 15 14 12 11 9 7 9 6 4 4 5
9 11 10 15 12 2 8 6 7 3 3 1 3 4 6 6 5 7 7 7 7 9 9 7 11 11 11 14 16 18 16 17 17 17 15 13 11 10 8 9 8 5 4 4
5 3 4 5 15 12 6 2 4 4 6 4 5 6 9 6 6 7 8 7 6 5 9 8 12 11 12 12 13 13 16 17 18 17 15 13 12 10 8 6 6 6 5 4
8 9 11 6 15 10 12 7 5 6 5 3 1 4 7 5 7 7 6 6 7 8 6 10 12 11 13 14 13 15 17 19 17 16 14 13 10 11 9 6 6 6 3 5
7 10 10 11 13 5 4 3 6 8 9 11 7 3 8 6 8 4 5 6 8 8 8 7 8 10 13 14 13 16 18 19 19 17 13 12 11 9 8 8 7 13 11 10
Wind_Direction
11 91 196 208 142 67 119 131 162 238 224 223 236 263 256 203 223 223 226 218 216 216 211 174 187 184 168 176 165 164 147 132 116 108 84 51 2 359 11 9 7 8 6 359
36 227 156 114 108 102 106 114 248 300 241 200 333 272 268 205 229 216 216 219 217 207 191 189 187 182 179 175 166 163 144 142 105 96 110 191 281 258 324 357 7 3 1 359
156 206 122 107 126 121 124 164 179 251 291 256 322 275 267 266 237 214 222 222 212 202 197 193 188 185 179 175 172 165 159 141 119 105 129 97 107 349 344 357 359 0 7 1
201 145 138 103 157 129 179 150 114 127 87 265 3 287 303 294 279 232 227 216 208 198 198 192 185 183 181 180 164 157 153 139 119 100 83 71 66 9 347 333 345 354 6 2
222 155 153 143 177 172 169 118 104 91 72 343 203 308 269 340 284 261 235 223 213 196 191 191 187 180 177 161 166 156 146 134 119 102 101 92 79 7 335 349 356 0 4 5
85 346 36 105 71 36 151 77 54 59 37 340 333 215 280 235 220 306 341 218 199 189 196 189 181 168 158 151 155 155 147 138 133 121 110 98 76 19 15 1 4 360 1 358
101 153 112 136 81 351 88 92 346 354 11 228 37 282 252 272 256 228 282 276 203 180 176 168 166 166 160 163 163 157 154 149 149 141 129 108 96 62 39 9 8 359 357 356
151 283 172 179 169 169 187 173 163 201 197 261 48 242 249 213 250 237 247 251 189 178 176 176 172 170 170 167 166 160 158 152 159 155 135 114 104 80 56 21 5 359 356 339
148 250 2 36 18 115 186 202 160 98 20 57 239 284 292 293 264 255 242 214 228 199 182 175 170 172 170 169 169 162 156 155 165 157 142 132 111 84 59 26 14 356 359 347
198 96 12 10 52 37 181 157 93 359 192 248 279 279 238 300 322 340 246 236 223 199 178 169 170 171 171 169 159 155 158 160 163 154 150 144 121 101 80 45 24 9 358 356
146 112 328 132 209 176 114 230 20 137 157 179 178 256 207 226 241 254 255 238 221 196 186 175 170 169 165 160 158 157 156 153 160 160 151 147 131 111 86 57 27 18 356 3
182 111 158 195 227 214 192 212 175 143 225 232 144 271 204 237 244 233 266 265 226 180 171 167 161 159 163 163 163 162 158 160 163 153 152 148 132 123 106 77 42 27 4 7
179 221 72 357 1 347 218 195 179 118 95 194 152 253 41 262 261 240 246 257 225 185 159 157 160 173 172 171 168 164 163 163 154 152 150 149 137 134 120 88 60 43 7 11
88 110 172 205 184 128 194 217 200 162 142 192 212 277 296 266 249 267 234 233 208 198 183 177 177 181 179 176 172 167 165 163 154 150 151 152 145 144 129 101 69 50 13 19
106 224 141 255 151 186 240 217 196 209 224 204 203 201 244 259 254 247 224 217 199 202 191 194 190 183 179 177 175 170 165 161 155 151 150 147 135 129 123 107 84 65 40 32
48 225 166 293 327 219 261 225 188 218 244 263 261 256 248 265 268 261 231 205 221 209 207 202 191 186 186 181 177 169 165 164 156 151 149 138 134 134 137 123 97 80 44 35
161 136 130 258 333 334 277 199 192 191 194 187 213 228 244 256 249 256 260 200 228 221 213 201 196 191 188 183 172 172 164 152 153 147 143 144 144 139 149 135 114 88 48 45
151 138 105 261 40 238 245 288 194 209 202 217 255 242 223 242 290 262 220 220 226 229 228 204 189 185 182 172 167 156 154 156 153 147 148 147 151 145 145 138 123 116 74 52
204 165 175 212 192 306 287 177 177 175 249 213 224 246 250 271 352 283 217 216 228 237 213 191 182 171 164 165 160 154 156 153 152 157 157 159 158 150 150 147 144 130 116 77
108 220 196 156 206 230 317 212 138 131 278 216 209 243 244 134 261 275 241 4 261 203 156 150 154 153 157 159 155 157 161 160 168 163 159 158 158 154 156 149 148 144 146 104
156 161 217 214 226 269 214 148 133 152 248 218 196 224 149 186 201 222 332 42 28 92 115 130 148 159 159 154 158 165 164 175 160 147 144 151 159 154 153 143 139 147 124 100
167 167 189 202 215 257 151 355 197 218 182 182 138 184 200 230 242 180 275 123 123 120 126 137 141 150 148 160 161 165 175 153 143 142 145 153 154 152 153 144 141 141 126 104
189 187 174 189 209 217 197 193 240 133 174 239 172 173 207 214 228 196 221 199 191 160 150 149 145 141 158 169 173 166 160 145 143 145 149 153 151 152 154 149 149 141 133 120
277 176 209 101 243 246 225 252 225 223 210 216 220 188 171 211 191 218 207 175 184 184 166 147 142 158 160 176 172 162 147 147 147 146 149 152 153 150 156 148 149 145 147 133
197 154 214 260 270 300 263 224 236 236 242 273 4 206 235 214 235 215 224 174 176 171 183 163 163 165 166 168 162 142 150 151 147 147 150 156 153 155 155 151 157 156 168 146
191 193 194 220 221 217 265 231 201 206 232 242 218 249 232 188 230 158 211 174 159 167 159 173 161 159 162 164 145 152 156 159 151 151 157 162 155 155 156 150 157 165 161 163